Weather in Matsu

Taiwan     26°10′50″N   119°57′47″E
temp.,
°C
wind,
m/s
gust,
m/s
humid.,
%
clouds,
%
prec.,
mm/h
press.,
hPa
HPBL,
m
18 october, mon
mon1823:00+21ne11116495 0.0 10231539
02:00+20nne10106869 0.0 10221183
05:00+20nne996518 0.0 10221011
08:00+20nne887296 0.0 1022914
11:00+20nne9879100 0.1 1022954
14:00+20nne667127 0.1 1020787
17:00+21ne77685 0.0 1020948
20:00+22ne6669100 0.0 10211052
19 october, tue
tue1923:00+22ne556999 0.0 10211114
02:00+22nne5571100 0.1 1019878
05:00+21nne6675100 0.0 1019801
08:00+21nne657224 0.1 1021834
11:00+21nne667263 0.0 1020862
14:00+22ne767420 0.0 1019789
17:00+22ne877593 0.0 1019889
20:00+23ne9975100 0.0 10201031
20 october, wed
wed2023:00+22ne111078100 0.2 1020978
02:00+21ne111182100 0.4 1019950
05:00+21ne111186100 1.0 1019921
08:00+20nne101185100 1.9 1021905
11:00+20nne9984100 0.4 1020840
14:00+20nne8984100 0.9 1018808
17:00+20nne8885100 0.8 1018786
20:00+20nne101186100 2.4 1019964
21 october, thu
thu2123:00+20nne111185100 1.6 1018984
02:00+19n101084100 3.0 1017964
05:00+19n91083100 1.2 1017973
08:00+19n91082100 2.6 1019946
11:00+19n81082100 1.6 10191010
14:00+19nne91183100 3.4 10181004
17:00+19nne111284100 2.2 1018950
20:00+19nne111286100 6.1 1020916
22 october, fri
fri2223:00+19nne101185100 3.3 1020904
02:00+19n101185100 5.5 1019937
05:00+18n111283100 1.9 1020950
08:00+19nne111283100 3.8 1021963
11:00+18nne111284100 2.3 10221012
14:00+18nne121384100 5.7 1021998
17:00+18nne131485100 3.5 1021997
20:00+18nne121383100 5.0 1023950